Regional Weather Roundup
Issued by NWS

Home | Current Version | Previous Version | Text Only | Print | Product List | Glossary Off
Versions: 1 2 3 4 5 6 7 8 9 10 11 12 13 14 15 16 17 18 19 20 21 22 23 24 25 26 27 28 29 30 31 32 33 34 35 36 37 38 39 40 41 42 43 44 45 46 47 48 49 50

000
ASUS44 KMEG 232110
RWRTN
TENNESSEE HOURLY STATE WEATHER ROUNDUP
NATIONAL WEATHER SERVICE MEMPHIS TN
300 PM CST THU FEB 23 2017

TNZ002-004-019-021-049-052-054-088>092-232200-
WEST TENNESSEE

CITY           SKY/WX    TMP DP  RH WIND       PRES   REMARKS
MEMPHIS INTL   MOSUNNY   77  55  46 S10G22    29.69F
NWS MEMPHIS      N/A     77 N/A N/A MISG        N/A
JACKSON        MOSUNNY   73  57  57 S12       29.71F
UNION CITY     MOSUNNY   73  48  40 S15       29.67F
PARIS          PTSUNNY   70  55  60 S10       29.72F
HUNTINGDON     PTSUNNY   73  57  56 S13       29.71F
$$

TNZ008-025-027-028-033-062-065-066-232200-
NORTH MIDDLE TENNESSEE

CITY           SKY/WX    TMP DP  RH WIND       PRES   REMARKS
NASHVILLE      PTSUNNY   74  54  49 S13       29.77F
PORTLAND       PTSUNNY   73  55  53 S14G21    29.76F
CLARKSVILLE    CLOUDY    72  55  55 S13       29.72F
SMYRNA         PTSUNNY   73  56  54 S10       29.78S
COOKEVILLE     PTSUNNY   73  54  49 SW13      29.77S
GALLATIN       PTSUNNY   73  55  53 S8G15     29.79S
CROSSVILLE     SUNNY     68  51  54 S8        29.82F
$$

TNZ061-075-076-078-094-096-097-232200-
SOUTH MIDDLE TENNESSEE

CITY           SKY/WX    TMP DP  RH WIND       PRES   REMARKS
FAYETTEVILLE   PTSUNNY   72  55  56 S9        29.80S
TULLAHOMA      CLOUDY    72  54  53 S9        29.80S
WINCHESTER     CLOUDY    72  55  56 S9        29.79S
MCMINNVILLE    MOSUNNY   72  55  56 SW6       29.79S
COLUMBIA       MOSUNNY   72  61  68 S9        29.76S
SHELBYVILLE    CLOUDY    75  57  53 SW13      29.79F
$$

TNZ017-018-042-046-047-232200-
NORTHEAST TENNESSEE

CITY           SKY/WX    TMP DP  RH WIND       PRES   REMARKS
TRI CITIES     MOSUNNY   72  51  47 CALM      29.83F
ELIZABETHTON   CLOUDY    70  52  52 SE3       29.82S
$$

TNZ012-013-036-069-073-074-232200-
CENTRAL EAST TENNESSEE

CITY           SKY/WX    TMP DP  RH WIND       PRES   REMARKS
KNOXVILLE      PTSUNNY   71  54  54 CALM      29.79F
OAK RIDGE      SUNNY     73  53  49 S3        29.80F
GATLINBURG     SUNNY     72  52  49 NW3       29.79F
MORRISTOWN     SUNNY     72  54  53 CALM      29.81S
JACKSBORO      SUNNY     72  54  53 CALM      29.83F
$$

TNZ083-085-099-232200-
SOUTHEAST TENNESSEE

CITY           SKY/WX    TMP DP  RH WIND       PRES   REMARKS
CHATTANOOGA    PTSUNNY   76  53  44 VRB3      29.79F
$$

SKY/WX REPORTED AS FAIR MEANS FEW OR NO CLOUDS BELOW
12 THOUSAND FEET.





USA.gov is the U.S. government's official web portal to all federal, state and local government web resources and services.